Regional Weather Roundup
Issued by NWS

Home | Current Version | Previous Version | Text Only | Print | Product List | Glossary Off
Versions: 1 2 3 4 5 6 7 8 9 10 11 12 13 14 15 16 17 18 19 20 21 22 23 24 25 26 27 28 29 30 31 32 33 34 35 36 37 38 39 40 41 42 43 44 45 46 47 48 49 50

000
ASUS43 KLOT 190609
RWRIL

ILLINOIS REGIONAL WEATHER ROUNDUP
NATIONAL WEATHER SERVICE CHICAGO/ROMEOVILLE IL
100 AM CDT THU OCT 19 2017

NOTE: "FAIR" INDICATES FEW OR NO CLOUDS BELOW 12,000 FEET WITH NO
SIGNIFICANT WEATHER AND/OR OBSTRUCTIONS TO VISIBILITY.

* THESE STATIONS ARE NOT UNDER NWS QUALITY CONTROL. THEY ALSO MAY NOT
  REPORT WEATHER SUCH AS PRECIPITATION OR FOG.

ILZ001-002-007-009-015-016-024-190700-
NORTHWEST ILLINOIS

CITY           SKY/WX    TMP DP  RH WIND       PRES   REMARKS
MOLINE         CLEAR     58  43  57 CALM      30.03S
6HR MIN TEMP:  54; 6HR MAX TEMP:  65;

STERLING*      CLEAR     54  45  71 VRB3        N/A
SAVANNA*       CLEAR     51  45  79 S6        30.02S
$$

ILZ003-004-008-010-011-017-018-190700-
NORTH CENTRAL ILLINOIS

CITY           SKY/WX    TMP DP  RH WIND       PRES   REMARKS
ROCKFORD       CLEAR     54  43  66 SW6       30.04S
6HR MIN TEMP:  52; 6HR MAX TEMP:  60;

FREEPORT*      PTCLDY    55  44  66 SW10      30.03S
ROCHELLE*      CLEAR     53  46  76 S6        30.04S
DE KALB*       CLEAR     48  44  86 S8        30.04S
PERU*          CLEAR     52  45  76 SW10      30.05F
$$

ILZ005-006-012>014-019>023-190700-
NORTHEAST ILLINOIS

CITY           SKY/WX    TMP DP  RH WIND       PRES   REMARKS
CHICAGO-OHARE  CLEAR     60  44  55 SW13      30.02F
6HR MIN TEMP:  60; 6HR MAX TEMP:  66;

CHICAGO-MIDWAY CLEAR     59  46  62 SW12      30.04F
6HR MIN TEMP:  59; 6HR MAX TEMP:  67;

AURORA         CLEAR     54  46  74 S9        30.04F
6HR MIN TEMP:  54; 6HR MAX TEMP:  63;

LANSING*       CLEAR     54  47  80 S9        30.06F
JOLIET*        CLEAR     54  47  77 S5        30.06F
WAUKEGAN       CLEAR     59  45  59 SW10      29.99F
6HR MIN TEMP:  59; 6HR MAX TEMP:  65;

DUPAGE AIRPORT CLEAR     52  46  80 S7        30.03F
6HR MIN TEMP:  51; 6HR MAX TEMP:  61;

KANKAKEE*      CLEAR     52  45  77 S7        30.09S
WHEELING       CLEAR     61  46  57 SW9       30.03F
6HR MIN TEMP:  61; 6HR MAX TEMP:  67;

MORRIS*        CLEAR     51  45  79 S5        30.05S
NORTHERLY ISL    N/A     60  44  55 S7          N/A
$$

LMZ740>746-190700-
SOUTHERN LAKE MICHIGAN

STATION/POSITION SKY/WX   TEMP    WIND        PRES    VSBY  WAVE
                          AIR SEA DIR/SP/G                  HT/PER
                          (F)     (DEG/KT/KT) (MB)    (MI)  (FT/S)
SOUTHERN BUOY              62 61  240/ 17/ 21 1015.5F         4/ 5
WILMETTE HARBOR            62 57  220/ 16/ 19   N/A           2/ 3
HARRISON CRIB              62     210/ 23/ 28   N/A
BURNHAM HARBOR             59     240/  7/ 11   N/A
CALUMET HARBOR                    210/  9/ 12 1016.7F
BURNS HARBOR               58     190/ 12/ 16 1018.3F
MICHIGAN CITY              58     180/ 12/ 14   N/A
MICHIGAN CITY 6N           60 58  220/ 16/ 21   N/A           2/ 3
ST. JOSEPH                 60 58  210/ 16/ 17 1017.9          3/ 4
$$

ILZ025>027-034>036-040-047-049-050-058-095>099-190700-
WEST-CENTRAL ILLINOIS

CITY           SKY/WX    TMP DP  RH WIND       PRES   REMARKS
QUINCY         CLEAR     54  44  69 S7        30.08S
GALESBURG*     CLEAR     51  45  79 S5        30.06S
MACOMB*        CLEAR     51  46  80 S6        30.08F
JACKSONVILLE*  CLEAR     57  47  70 S6        30.10S
PITTSFIELD*    CLEAR     56  47  72 S5        30.10S
$$

ILZ028>032-037-038-041>044-048-051>054-059>061-190700-
CENTRAL ILLINOIS

CITY           SKY/WX    TMP DP  RH WIND       PRES   REMARKS
PONTIAC        CLEAR     55  49  80 S7        30.09S
BLOOMINGTON    CLEAR     56  47  71 SW13      30.10F
DECATUR        CLEAR     55  47  74 SW12      30.12F
PEORIA         CLEAR     52  46  80 S5        30.08S
6HR MIN TEMP:  52; 6HR MAX TEMP:  64;

LACON*         CLEAR     56  48  74 SW5       30.05F
LINCOLN*       CLEAR     54  49  83 S5        30.10S
SPRINGFIELD    CLEAR     56  49  77 S5        30.11S
6HR MIN TEMP:  56; 6HR MAX TEMP:  66;

TAYLORVILLE    CLEAR     53  47  82 S7        30.13S
6HR MIN TEMP:  53; 6HR MAX TEMP:  62;

$$

ILZ033-039-045-046-055>057-062-063-190700-
EAST-CENTRAL ILLINOIS

CITY           SKY/WX    TMP DP  RH WIND       PRES   REMARKS
CHAMPAIGN      CLEAR     51  45  79 S9        30.12F
DANVILLE*      CLEAR     53  45  73 SW10      30.10S
RANTOUL*       CLEAR     49  46  90 S5        30.11F
MATTOON        CLEAR     55  48  77 S7        30.13S
PARIS*         CLEAR     53  47  82 S8        30.15S
$$

ILZ079-100>102-190700-
SOUTHWEST ILLINOIS

CITY           SKY/WX    TMP DP  RH WIND       PRES   REMARKS
ALTON          CLEAR     55  49  81 CALM      30.13R
BELLEVILLE     CLEAR     56  47  74 S3        30.16R
CAHOKIA*       CLEAR     55  47  74 CALM      30.13R
SPARTA*        CLEAR     60  48  64 S9        30.14S
$$

ILZ064>066-069>071-074>076-080>082-084>086-088>090-092>094-190700-
SOUTH-CENTRAL ILLINOIS

CITY           SKY/WX    TMP DP  RH WIND       PRES   REMARKS
CARBONDALE     CLEAR     53  48  83 S6        30.15S
6HR MIN TEMP:  51; 6HR MAX TEMP:  62;

CAIRO*         PTCLDY    56  49  75 S6        30.18S
EFFINGHAM*     CLEAR     53  47  80 SE3       30.17R
MARION         CLEAR     58  49  73 S7        30.16S
MT. VERNON     CLEAR     52  48  86 CALM      30.16R
CENTRALIA*     CLEAR     57  49  75 S5        30.14R
SALEM*         CLEAR     58  48  68 S5        30.15R
METROPOLIS*    CLOUDY    53  47  80 S5        30.19S
$$

ILZ067-068-072-073-078-083-087-091-190700-
SOUTHEAST ILLINOIS

CITY           SKY/WX    TMP DP  RH WIND       PRES   REMARKS
LAWRENCEVILLE  CLEAR     51  46  83 S6        30.17S
FLORA*         CLEAR     51  47  87 CALM      30.17R
FAIRFIELD*     CLEAR     54  48  78 S3        30.15S
HARRISBURG*    CLOUDY    48  46  91 CALM      30.17S
ROBINSON*      CLEAR     48  45  88 S3        30.17S
CARMI*         CLEAR     50  47  91 S5        30.16S
$$

ABBREVIATIONS USED IN REMARKS
   TC - TEMPERATURE IN CELSIUS
  WCI - WIND CHILL INDEX
   HX - HEAT INDEX
  VSB - VISIBILITY
$$





USA.gov is the U.S. government's official web portal to all federal, state and local government web resources and services.